This demonstration page uses our WeatherBlox Daily Observations layout. Learn more.

Left ArrowRight Arrow

Hourly Observations for August 18, 2020

Temp ( °F °C ) Dew Point ( °F °C ) Humidity (%) Winds ( mph kmh ) Pressure ( in mb ) Visibility ( mi km ) Precip ( " mm )
12:15 am 00:15 Clear 68 19.9 59 15.1 74 74 S 6 9 30.13 1020 10 16.0934 0 0
12:35 am 00:35 Clear 67 19.3 58 14.6 74 74 S 5 7 30.12 1020 10 16.0934 0 0
12:55 am 00:55 Clear 67 19.2 58 14.7 75 75 SSE 3 6 30.11 1020 10 16.0934 0 0
1:15 am 01:15 Clear 63 17.2 58 14.4 84 84 Calm 30.13 1020 10 16.0934 0 0
1:35 am 01:35 Clear 64 17.5 58 14.4 82 82 Calm 30.14 1021 10 16.0934 0 0
1:55 am 01:55 Clear 65 18.5 58 14.6 78 78 Calm 30.14 1021 10 16.0934 0 0
2:15 am 02:15 Clear 66 18.8 58 14.5 76 76 SSW 3 6 30.14 1021 10 16.0934 0 0
2:35 am 02:35 Clear 65 18.5 58 14.5 78 78 Calm 30.12 1020 10 16.0934 0 0
2:55 am 02:55 Clear 66 18.7 58 14.3 76 76 Calm 30.12 1020 10 16.0934 0 0
3:15 am 03:15 Clear 62 16.9 57 13.8 82 82 Calm 30.13 1020 10 16.0934 0 0
3:35 am 03:35 Clear 63 17.3 58 14.3 83 83 SSW 3 6 30.13 1020 10 16.0934 0 0
3:55 am 03:55 Clear 63 17.2 57 13.9 81 81 S 3 6 30.13 1020 10 16.0934 0 0
4:15 am 04:15 Clear 60 15.5 56 13.6 89 89 SE 3 6 30.13 1020 10 16.0934 0 0
4:35 am 04:35 Clear 61 16.2 58 14.5 90 90 Calm 30.14 1021 10 16.0934 0 0
4:55 am 04:55 Clear 62 16.6 58 14.5 88 88 S 3 6 30.14 1020 10 16.0934 0 0
5:15 am 05:15 Clear 64 17.5 58 14.5 83 83 SSE 3 6 30.12 1020 10 16.0934 0 0
5:35 am 05:35 Clear 63 17.1 58 14.6 85 85 S 3 6 30.12 1020 10 16.0934 0 0
5:55 am 05:55 Partly Cloudy 63 17.3 58 14.7 85 85 Calm 30.13 1020 10 16.0934 0 0
6:15 am 06:15 Mostly Cloudy 63 17.4 59 15.1 86 86 Calm 30.13 1020 10 16.0934 0 0
6:35 am 06:35 Mostly Cloudy with Light Rain 65 18.1 60 15.4 84 84 NW 7 11 30.16 1021 10 16.0934 0 0
6:55 am 06:55 Cloudy with Rain 65 18.1 61 16 88 88 Calm 30.12 1020 10 16.0934 0 0
7:15 am 07:15 Mostly Cloudy 68 19.8 59 15 74 74 SSW 8 13 30.09 1019 10 16.0934 0 0
7:35 am 07:35 Partly Cloudy 66 19.1 60 15.4 79 79 ESE 3 6 30.09 1019 10 16.0934 0 0
7:55 am 07:55 Sunny 65 18.1 61 16.2 89 89 E 7 11 30.1 1019 10 16.0934 0 0
8:15 am 08:15 Partly Cloudy 66 19 61 16 83 83 Calm 30.12 1020 10 16.0934 0 0
8:35 am 08:35 Mostly Cloudy with Light Thunderstorms 66 18.8 62 16.7 88 88 ESE 5 7 30.1 1019 10 16.0934 0 0
8:55 am 08:55 Cloudy with Thunderstorms 67 19.3 61 16.3 83 83 Calm 30.13 1020 10 16.0934 0 0
9:15 am 09:15 Cloudy with Heavy Thunderstorms 66 19 62 16.5 86 86 N 13 20 30.2 1023 10 16.0934 0.01 0.254
9:35 am 09:35 Cloudy with Light Rain 65 18.1 62 16.5 90 90 Calm 30.19 1022 7 11.26538 0.04 1.016
9:55 am 09:55 Mostly Cloudy with Light Rain 65 18.2 62 16.8 92 92 S 6 9 30.16 1021 10 16.0934 0.05 1.27
10:15 am 10:15 Sunny 65 18.5 62 16.7 89 89 S 8 13 30.12 1020 10 16.0934 0 0
10:35 am 10:35 Sunny 68 20.2 58 14.4 69 69 S 5 7 30.11 1019 10 16.0934 0 0
10:55 am 10:55 Sunny 69 20.6 60 15.7 74 74 Calm 30.11 1020 10 16.0934 0 0
11:15 am 11:15 Sunny 71 21.9 61 16.1 70 70 SE 5 7 30.1 1019 10 16.0934 0 0
11:35 am 11:35 Sunny 75 24.1 58 14.6 55 55 S 7 11 30.07 1018 10 16.0934 0 0
11:55 am 11:55 Sunny 77 25.2 60 15.6 55 55 SSE 8 13 30.03 1017 10 16.0934 0 0
12:15 pm 12:15 Sunny 78 25.5 59 15.1 53 53 SE 6 9 30.07 1018 10 16.0934 0 0
12:35 pm 12:35 Sunny 78 25.6 59 15.2 53 53 SSE 8 13 30.06 1018 10 16.0934 0 0
12:55 pm 12:55 Sunny 80 26.6 61 16.1 53 53 SSE 9 15 30.03 1017 10 16.0934 0 0
1:15 pm 13:15 Sunny 81 27.4 59 15 47 47 SSE 10 17 30.02 1016 10 16.0934 0 0
1:35 pm 13:35 Sunny 81 27.3 60 15.3 48 48 S 10 17 30.01 1016 10 16.0934 0 0
1:55 pm 13:55 Sunny 83 28.2 60 15.6 46 46 S 10 17 29.97 1015 10 16.0934 0 0
2:15 pm 14:15 Sunny 83 28.6 57 14.1 41 41 S 13 20 29.97 1015 10 16.0934 0 0
2:35 pm 14:35 Sunny 85 29.4 57 14 39 39 S 13 20 29.95 1014 10 16.0934 0 0
2:55 pm 14:55 Sunny 86 29.8 55 13 36 36 SSE 12 19 29.95 1014 10 16.0934 0 0
3:15 pm 15:15 Sunny 86 30 53 11.6 32 32 SE 15 24 29.95 1014 10 16.0934 0 0
3:35 pm 15:35 Sunny 87 30.4 53 11.4 31 31 SSE 16 26 29.93 1014 10 16.0934 0 0
3:55 pm 15:55 Sunny 87 30.5 52 11 30 30 SSE 10 17 29.92 1013 10 16.0934 0 0
4:15 pm 16:15 Sunny 87 30.5 52 11.1 30 30 SSE 14 22 29.9 1013 10 16.0934 0 0
4:35 pm 16:35 Sunny 87 30.3 54 12 32 32 S 13 20 29.9 1013 10 16.0934 0 0
4:55 pm 16:55 Sunny 87 30.6 57 13.8 36 36 SSE 9 15 29.91 1013 10 16.0934 0 0
5:15 pm 17:15 Sunny 87 30.3 56 13.4 36 36 SSE 12 19 29.88 1012 10 16.0934 0 0
5:35 pm 17:35 Sunny 86 29.8 60 15.5 42 42 SSE 10 17 29.9 1012 10 16.0934 0 0
5:55 pm 17:55 Sunny 85 29.4 61 16 44 44 SE 12 19 29.89 1012 10 16.0934 0 0
6:15 pm 18:15 Sunny 83 28.6 62 16.5 48 48 SE 12 19 29.91 1013 10 16.0934 0 0
6:35 pm 18:35 Sunny 84 28.9 62 16.8 48 48 SE 10 17 29.9 1012 10 16.0934 0 0
6:55 pm 18:55 Sunny 82 28 63 17 51 51 SE 10 17 29.9 1013 10 16.0934 0 0
7:15 pm 19:15 Sunny 82 27.6 62 16.9 52 52 SE 10 17 29.9 1012 10 16.0934 0 0
7:35 pm 19:35 Sunny 80 26.5 63 17.3 57 57 SE 8 13 29.9 1013 10 16.0934 0 0
7:55 pm 19:55 Sunny 78 25.5 64 17.5 61 61 SE 8 13 29.91 1013 10 16.0934 0 0
8:15 pm 20:15 Sunny 76 24.3 64 17.5 66 66 ESE 8 13 29.92 1013 10 16.0934 0 0
8:35 pm 20:35 Clear 73 23 64 17.6 72 72 ESE 9 15 29.93 1014 10 16.0934 0 0
8:55 pm 20:55 Clear 73 22.7 63 17.1 71 71 ESE 10 17 29.94 1014 10 16.0934 0 0
9:15 pm 21:15 Clear 72 22.1 62 16.7 72 72 ESE 9 15 29.95 1014 10 16.0934 0 0
9:35 pm 21:35 Clear 71 21.5 62 16.5 73 73 ESE 9 15 29.96 1015 10 16.0934 0 0
9:55 pm 21:55 Clear 70 21.2 62 16.6 75 75 ESE 10 17 29.98 1015 10 16.0934 0 0
10:15 pm 22:15 Clear 69 20.8 62 16.7 77 77 ESE 10 17 29.98 1015 10 16.0934 0 0
10:35 pm 22:35 Clear 69 20.6 62 16.8 79 79 SE 10 17 29.98 1015 10 16.0934 0 0
10:55 pm 22:55 Clear 69 20.6 63 17 80 80 SE 10 17 29.98 1015 10 16.0934 0 0
11:15 pm 23:15 Clear 69 20.5 62 16.6 78 78 SE 12 19 29.98 1015 10 16.0934 0 0
11:35 pm 23:35 Clear 68 20.2 62 16.4 79 79 SE 9 15 29.99 1015 10 16.0934 0 0
11:55 pm 23:55 Clear 68 20.1 61 16.3 79 79 SE 10 17 29.99 1015 10 16.0934 0 0

Powered by AerisWeather